Date String (YYYY-MM-DD hh:mm:ss) UTC,Instrument flags,Ambient pressure (hPa),Sample flow (lpm),Bypass flow (lpm),Sample temperature (°C),Ambient temperature (°C),ASC tube jacket temperature (°C),LED temperature (°C),Box temperature (°C),Sample RH (%),Span deviation,Mass concentration (μg/m³),Mass concentration (μg/m³),Mass concentration (μg/m³)
DateTimeUTC,F1_M11,P_M11,Q1_M11,Q2_M11,T1_M11,T2_M11,T3_M11,T4_M11,T5_M11,U1_M11,ZSPAN_M11,X2_M11,X0_M11,X1_M11
2022-01-27 21:00:00,,0835.2,5.01,0.00,22.3,21.8,00.0,31.3,24.1,10.3,0000.0,0002.34,0003.31,0002.09
2022-01-27 21:01:00,,0835.2,4.99,0.00,22.3,21.8,00.0,31.3,24.1,10.3,0000.0,0002.37,0003.41,0002.12
2022-01-27 21:02:00,,0835.2,4.99,0.00,22.3,21.8,00.0,31.3,24.1,10.5,0000.0,0002.44,0003.61,0002.17
2022-01-27 21:03:00,,0835.2,5.00,0.00,22.3,21.8,00.0,31.3,24.0,10.4,0000.0,0002.48,0003.69,0002.22
2022-01-27 21:04:00,,0835.2,5.01,0.00,22.3,21.7,00.0,31.3,24.0,10.4,0000.0,0002.54,0003.72,0002.29
2022-01-27 21:05:00,,0835.2,4.99,0.00,22.3,21.7,00.0,31.3,24.0,10.3,0000.0,0002.58,0003.76,0002.33
2022-01-27 21:06:00,,0835.2,5.00,0.00,22.3,21.7,00.0,31.3,24.0,10.4,0000.0,0002.60,0003.74,0002.38
2022-01-27 21:07:00,,0835.3,5.01,0.00,22.3,21.7,00.0,31.3,24.0,10.6,0000.0,0002.62,0003.76,0002.41
2022-01-27 21:08:00,,0835.3,4.98,0.00,22.3,21.7,00.0,31.3,24.0,10.5,0000.0,0002.65,0003.79,0002.45
2022-01-27 21:09:00,,0835.3,5.01,0.00,22.3,22.1,00.0,31.3,24.1,10.4,0000.0,0002.67,0003.71,0002.48
2022-01-27 21:10:00,,0835.4,5.01,0.00,22.5,23.0,00.0,31.3,24.5,10.4,0000.0,0002.72,0003.82,0002.49
2022-01-27 21:11:00,,0835.3,4.99,0.00,22.6,23.5,00.0,31.4,24.7,10.3,0000.0,0002.77,0003.92,0002.50
2022-01-27 21:12:00,,0835.3,5.00,0.00,22.7,23.3,00.0,31.4,24.7,10.5,0000.0,0002.81,0003.96,0002.52
2022-01-27 21:13:00,,0835.3,5.00,0.00,22.7,23.1,00.0,31.4,24.7,10.2,0000.0,0002.82,0003.87,0002.54
2022-01-27 21:14:00,,0835.3,5.00,0.00,22.7,22.9,00.0,31.5,24.6,10.1,0000.0,0002.82,0003.77,0002.57
2022-01-27 21:15:00,,0835.3,4.99,0.00,22.7,22.7,00.0,31.5,24.5,10.3,0000.0,0002.83,0003.77,0002.58
2022-01-27 21:16:00,,0835.3,5.01,0.00,22.6,22.5,00.0,31.5,24.4,10.0,0000.0,0002.88,0003.84,0002.61
2022-01-27 21:17:00,,0835.3,5.01,0.00,22.6,22.4,00.0,31.5,24.4,10.1,0000.0,0002.93,0003.87,0002.65
2022-01-27 21:18:00,,0835.4,5.00,0.00,22.6,22.2,00.0,31.5,24.3,10.0,0000.0,0002.98,0003.86,0002.70
2022-01-27 21:19:00,,0835.3,4.99,0.00,22.6,22.0,00.0,31.5,24.3,09.9,0000.0,0003.06,0003.78,0002.76
2022-01-27 21:20:00,,0835.4,5.00,0.00,22.5,22.0,00.0,31.5,24.3,10.1,0000.0,0003.11,0003.82,0002.79
2022-01-27 21:21:00,,0835.3,5.01,0.00,22.5,22.0,00.0,31.5,24.2,10.1,0000.0,0003.14,0003.84,0002.86
2022-01-27 21:22:00,,0835.4,5.00,0.00,22.5,22.0,00.0,31.5,24.2,10.1,0000.0,0003.17,0003.91,0002.92
2022-01-27 21:23:00,,0835.3,4.99,0.00,22.5,21.9,00.0,31.5,24.2,09.8,0000.0,0003.21,0003.92,0003.03
2022-01-27 21:24:00,,0835.4,4.99,0.00,22.5,21.9,00.0,31.5,24.2,09.9,0000.0,0003.28,0004.00,0003.14
2022-01-27 21:25:00,,0835.4,4.99,0.00,22.5,21.9,00.0,31.5,24.2,09.9,0000.0,0003.34,0004.15,0003.20
2022-01-27 21:26:00,,0835.5,5.00,0.00,22.5,21.9,00.0,31.5,24.2,10.2,0000.0,0003.40,0004.19,0003.27
2022-01-27 21:27:00,,0835.5,5.01,0.00,22.5,21.9,00.0,31.4,24.2,10.4,0000.0,0003.47,0004.29,0003.34
2022-01-27 21:28:00,,0835.5,5.00,0.00,22.4,21.9,00.0,31.4,24.2,10.3,0000.0,0003.53,0004.37,0003.39
2022-01-27 21:29:00,,0835.5,5.00,0.00,22.4,21.8,00.0,31.4,24.2,10.2,0000.0,0003.60,0004.93,0003.45
2022-01-27 21:30:00,,0835.5,5.00,0.00,22.4,21.8,00.0,31.4,24.1,10.3,0000.0,0003.64,0005.31,0003.50
2022-01-27 21:31:00,,0835.5,5.00,0.00,22.4,21.8,00.0,31.4,24.1,10.2,0000.0,0003.69,0005.33,0003.55
2022-01-27 21:32:00,,0835.5,4.99,0.00,22.4,21.8,00.0,31.4,24.1,10.2,0000.0,0003.73,0005.36,0003.61
2022-01-27 21:33:00,,0835.5,5.00,0.00,22.4,21.8,00.0,31.4,24.1,10.1,0000.0,0003.78,0005.30,0003.66
2022-01-27 21:34:00,,0835.5,5.01,0.00,22.4,21.8,00.0,31.4,24.1,10.1,0000.0,0003.80,0005.32,0003.68
2022-01-27 21:35:00,,0835.5,5.00,0.00,22.4,21.8,00.0,31.4,24.1,10.3,0000.0,0003.79,0005.24,0003.69
2022-01-27 21:36:00,,0835.5,4.98,0.00,22.3,21.8,00.0,31.4,24.1,10.4,0000.0,0003.79,0005.13,0003.70
2022-01-27 21:37:00,,0835.5,5.00,0.00,22.3,21.8,00.0,31.4,24.1,10.5,0000.0,0003.80,0005.14,0003.70
2022-01-27 21:38:00,,0835.5,5.00,0.00,22.3,21.8,00.0,31.4,24.1,10.5,0000.0,0003.79,0005.06,0003.71
2022-01-27 21:39:00,,0835.5,5.00,0.00,22.3,21.8,00.0,31.3,24.1,10.5,0000.0,0003.79,0005.03,0003.72
2022-01-27 21:40:00,,0835.5,5.01,0.00,22.3,21.8,00.0,31.3,24.0,10.5,0000.0,0003.79,0004.54,0003.73
2022-01-27 21:41:00,,0835.5,5.01,0.00,22.3,21.8,00.0,31.3,24.0,10.5,0000.0,0003.80,0004.19,0003.74
2022-01-27 21:42:00,,0835.5,5.00,0.00,22.3,21.7,00.0,31.3,24.0,10.5,0000.0,0003.81,0004.20,0003.75
2022-01-27 21:43:00,,0835.4,4.99,0.00,22.3,21.7,00.0,31.3,24.0,10.5,0000.0,0003.81,0004.19,0003.76
2022-01-27 21:44:00,,0835.5,5.00,0.00,22.3,21.7,00.0,31.3,24.0,10.5,0000.0,0003.82,0004.20,0003.77
2022-01-27 21:45:00,,0835.5,5.01,0.00,22.3,21.8,00.0,31.3,24.0,10.5,0000.0,0003.83,0004.22,0003.78
2022-01-27 21:46:00,,0835.6,5.00,0.00,22.4,22.4,00.0,31.3,24.2,10.4,0000.0,0003.84,0004.27,0003.78
2022-01-27 21:47:00,,0835.6,5.01,0.00,22.5,23.2,00.0,31.4,24.5,10.4,0000.0,0003.86,0004.32,0003.78
2022-01-27 21:48:00,,0835.6,4.99,0.00,22.7,23.4,00.0,31.4,24.7,10.3,0000.0,0003.88,0004.56,0003.80
2022-01-27 21:49:00,,0835.6,5.00,0.00,22.7,23.2,00.0,31.4,24.7,10.1,0000.0,0003.89,0004.82,0003.80
2022-01-27 21:50:00,,0835.6,5.00,0.00,22.7,23.0,00.0,31.5,24.6,09.9,0000.0,0003.91,0005.06,0003.82
2022-01-27 21:51:00,,0835.6,5.00,0.00,22.7,22.8,00.0,31.5,24.6,09.9,0000.0,0003.91,0005.05,0003.82
2022-01-27 21:52:00,,0835.6,4.99,0.00,22.7,22.7,00.0,31.5,24.5,10.1,0000.0,0003.92,0005.08,0003.83
2022-01-27 21:53:00,,0835.6,5.00,0.00,22.7,22.6,00.0,31.5,24.5,10.0,0000.0,0003.93,0005.21,0003.84
2022-01-27 21:54:00,,0835.6,5.00,0.00,22.7,22.4,00.0,31.5,24.4,09.9,0000.0,0003.94,0005.31,0003.84
2022-01-27 21:55:00,,0835.6,4.98,0.00,22.6,22.3,00.0,31.5,24.4,10.0,0000.0,0003.96,0005.36,0003.85
2022-01-27 21:56:00,,0835.6,5.01,0.00,22.6,22.3,00.0,31.5,24.3,10.1,0000.0,0003.96,0005.32,0003.86
2022-01-27 21:57:00,,0835.6,5.00,0.00,22.6,22.2,00.0,31.5,24.3,10.0,0000.0,0003.96,0005.30,0003.87
2022-01-27 21:58:00,,0835.6,5.01,0.00,22.6,22.2,00.0,31.5,24.3,09.9,0000.0,0003.96,0005.31,0003.88
2022-01-27 21:59:00,,0835.6,5.00,0.00,22.6,22.1,00.0,31.5,24.3,09.9,0000.0,0003.95,0005.16,0003.87
